�N����,����,�g�[���i���ԁj���x,�g�[�����x,��g�[���i���ցj���x,����
 2003/11/01, 0:00,20.8,63,20.5,-9.9
 2003/11/01, 0:15,20.7,63,20.4,-9.9
 2003/11/01, 0:30,20.7,63,20.4,-9.9
 2003/11/01, 0:45,20.5,64,20.4,-9.9
 2003/11/01, 1:00,20.5,65,20.4,-9.9
 2003/11/01, 1:15,20.5,65,20.4,-9.9
 2003/11/01, 1:30,20.5,66,20.4,-9.9
 2003/11/01, 1:45,20.4,67,20.5,-9.9
 2003/11/01, 2:00,20.3,67,20.4,-9.9
 2003/11/01, 2:15,20.2,67,20.4,-9.9
 2003/11/01, 2:30,20.2,68,20.4,-9.9
 2003/11/01, 2:45,20.1,68,20.4,-9.9
 2003/11/01, 3:00,20.1,68,20.3,-9.9
 2003/11/01, 3:15,19.9,68,20.3,-9.9
 2003/11/01, 3:30,19.9,69,20.3,-9.9
 2003/11/01, 3:45,19.9,68.5,20.2,-9.9
 2003/11/01, 4:00,19.6,68,20.2,-9.9
 2003/11/01, 4:15,19.6,68.5,20.1,-9.9
 2003/11/01, 4:30,19.5,68,20,-9.9
 2003/11/01, 4:45,19.3,68,20,-9.9
 2003/11/01, 5:00,19.2,68,19.9,-9.9
 2003/11/01, 5:15,19.1,68,19.9,-9.9
 2003/11/01, 5:30,19,68,19.8,-9.9
 2003/11/01, 5:45,18.9,68,19.6,-9.9
 2003/11/01, 6:00,18.8,68,19.6,-9.9
 2003/11/01, 6:15,18.7,68,19.5,-9.9
 2003/11/01, 6:30,18.7,68,19.4,-9.9
 2003/11/01, 6:45,18.6,68,19.4,-9.9
 2003/11/01, 7:00,18.6,68,19.3,-9.9
 2003/11/01, 7:15,18.6,68,19.3,-9.9
 2003/11/01, 7:30,18.7,68,19.3,-9.9
 2003/11/01, 7:45,18.9,68.5,19.3,-9.9
 2003/11/01, 8:00,19,69,19.3,-9.9
 2003/11/01, 8:15,19,67.5,19.4,-9.9
 2003/11/01, 8:30,19.2,66,19.5,-9.9
 2003/11/01, 8:45,19.4,65.5,19.5,-9.9
 2003/11/01, 9:00,20.3,64,19.7,-9.9
 2003/11/01, 9:15,21.6,58,19.8,-9.9
 2003/11/01, 9:30,22.1,58,19.8,-9.9
 2003/11/01, 9:45,22.4,57,20.2,-9.9
 2003/11/01,10:00,22.9,56,20.7,-9.9
 2003/11/01,10:15,23.8,53.5,20.9,-9.9
 2003/11/01,10:30,24.8,51,21.2,-9.9
 2003/11/01,10:45,25.5,49.5,21.5,-9.9
 2003/11/01,11:00,26,48,21.8,-9.9
 2003/11/01,11:15,27.5,44,22,-9.9
 2003/11/01,11:30,27.4,46,22.3,-9.9
 2003/11/01,11:45,26.9,48.5,22.6,-9.9
 2003/11/01,12:00,26.5,49,22.9,-9.9
 2003/11/01,12:15,26.1,48,23,-9.9
 2003/11/01,12:30,25.8,48,23.1,-9.9
 2003/11/01,12:45,26,46.5,23.4,-9.9
 2003/11/01,13:00,26.1,44,23.6,-9.9
 2003/11/01,13:15,26.5,46,23.8,-9.9
 2003/11/01,13:30,26.5,44,24,-9.9
 2003/11/01,13:45,26.5,47,24.2,-9.9
 2003/11/01,14:00,26.3,45,24.4,-9.9
 2003/11/01,14:15,25.8,40,24.5,-9.9
 2003/11/01,14:30,25.6,40,24.6,-9.9
 2003/11/01,14:45,25.5,41.5,24.7,-9.9
 2003/11/01,15:00,25.2,39,24.7,-9.9
 2003/11/01,15:15,25,40,24.5,-9.9
 2003/11/01,15:30,24.7,41,24.3,-9.9
 2003/11/01,15:45,24.6,43.5,24.1,-9.9
 2003/11/01,16:00,24.2,42,23.9,-9.9
 2003/11/01,16:15,24.1,45,23.9,-9.9
 2003/11/01,16:30,23.9,47,23.7,-9.9
 2003/11/01,16:45,23.8,48,23.6,-9.9
 2003/11/01,17:00,23.6,49,23.4,-9.9
 2003/11/01,17:15,23.3,49.5,23.2,-9.9
 2003/11/01,17:30,22.9,51,23.1,-9.9
 2003/11/01,17:45,23.1,52,23.2,-9.9
 2003/11/01,18:00,23,52,23.2,-9.9
 2003/11/01,18:15,22.9,53.5,23.3,-9.9
 2003/11/01,18:30,22.9,54,23.2,-9.9
 2003/11/01,18:45,22.9,55,23,-9.9
 2003/11/01,19:00,22.7,56,22.8,-9.9
 2003/11/01,19:15,22.6,57,22.5,-9.9
 2003/11/01,19:30,22.5,57,22.4,-9.9
 2003/11/01,19:45,22.5,58.5,22.5,-9.9
 2003/11/01,20:00,22.5,59,22.4,-9.9
 2003/11/01,20:15,22.4,59,22.4,-9.9
 2003/11/01,20:30,22.4,59,22.3,-9.9
 2003/11/01,20:45,22.4,60.5,22.1,-9.9
 2003/11/01,21:00,22.5,62,22,-9.9
 2003/11/01,21:15,22.5,62.5,22,-9.9
 2003/11/01,21:30,22.5,63,21.8,-9.9
 2003/11/01,21:45,22.5,63,21.7,-9.9
 2003/11/01,22:00,22.4,63,21.6,-9.9
 2003/11/01,22:15,22.4,63,21.5,-9.9
 2003/11/01,22:30,22.4,63,21.4,-9.9
 2003/11/01,22:45,22.3,63,21.4,-9.9
 2003/11/01,23:00,22.3,63,21.2,-9.9
 2003/11/01,23:15,22.2,63,21.1,-9.9
 2003/11/01,23:30,22.2,64,21,-9.9
 2003/11/01,23:45,22.2,64,21,-9.9
 2003/11/02, 0:00,22.1,64,20.9,-9.9
 2003/11/02, 0:15,22,64.5,20.9,-9.9
 2003/11/02, 0:30,22,65,20.8,-9.9
 2003/11/02, 0:45,21.9,65,20.6,-9.9
 2003/11/02, 1:00,21.9,66,20.6,-9.9
 2003/11/02, 1:15,21.9,66.5,20.5,-9.9
 2003/11/02, 1:30,21.9,67,20.4,-9.9
 2003/11/02, 1:45,21.7,66.5,20.1,-9.9
 2003/11/02, 2:00,21.6,66,20,-9.9
 2003/11/02, 2:15,21.6,68,19.9,-9.9
 2003/11/02, 2:30,21.5,67,19.8,-9.9
 2003/11/02, 2:45,21.5,66.5,19.7,-9.9
 2003/11/02, 3:00,21.4,66,19.7,-9.9
 2003/11/02, 3:15,21,63,20,-9.9
 2003/11/02, 3:30,20.8,63,20,-9.9
 2003/11/02, 3:45,20.7,63,20,-9.9
 2003/11/02, 4:00,20.5,63,19.9,-9.9
 2003/11/02, 4:15,20.4,64,19.9,-9.9
 2003/11/02, 4:30,20.3,65,19.8,-9.9
 2003/11/02, 4:45,20.1,65,19.8,-9.9
 2003/11/02, 5:00,20.1,66,19.8,-9.9
 2003/11/02, 5:15,20,65.5,19.7,-9.9
 2003/11/02, 5:30,19.9,66,19.7,-9.9
 2003/11/02, 5:45,19.9,66,19.6,-9.9
 2003/11/02, 6:00,19.8,66,19.6,-9.9
 2003/11/02, 6:15,19.8,67,19.6,-9.9
 2003/11/02, 6:30,19.7,67,19.6,-9.9
 2003/11/02, 6:45,19.6,67,19.5,-9.9
 2003/11/02, 7:00,19.6,67,19.6,-9.9
 2003/11/02, 7:15,19.5,67,19.6,-9.9
 2003/11/02, 7:30,19.5,68,19.7,-9.9
 2003/11/02, 7:45,19.5,68,19.8,-9.9
 2003/11/02, 8:00,19.5,69,19.9,-9.9
 2003/11/02, 8:15,19.5,68,19.9,-9.9
 2003/11/02, 8:30,19.6,69,20,-9.9
 2003/11/02, 8:45,19.6,69,20,-9.9
 2003/11/02, 9:00,19.6,68,20,-9.9
 2003/11/02, 9:15,19.6,67.5,20.1,-9.9
 2003/11/02, 9:30,19.7,67,20.2,-9.9
 2003/11/02, 9:45,19.7,67,20.2,-9.9
 2003/11/02,10:00,19.7,67,20.3,-9.9
 2003/11/02,10:15,19.8,67,20.4,-9.9
 2003/11/02,10:30,19.8,67,20.5,-9.9
 2003/11/02,10:45,20,67,20.6,-9.9
 2003/11/02,11:00,20.1,67,20.8,-9.9
 2003/11/02,11:15,20.4,68.5,20.9,-9.9
 2003/11/02,11:30,20.6,71,20.9,-9.9
 2003/11/02,11:45,20.9,71,21,-9.9
 2003/11/02,12:00,21,70,21,-9.9
 2003/11/02,12:15,21.4,68,21.2,-9.9
 2003/11/02,12:30,21.8,67,21.5,-9.9
 2003/11/02,12:45,21.9,66,21.4,-9.9
 2003/11/02,13:00,21.9,67,21.3,-9.9
 2003/11/02,13:15,22,67.5,21.4,-9.9
 2003/11/02,13:30,22,67,21.5,-9.9
 2003/11/02,13:45,22.1,68,21.5,-9.9
 2003/11/02,14:00,22.2,69,21.6,-9.9
 2003/11/02,14:15,22.2,70,21.5,-9.9
 2003/11/02,14:30,22.5,69,22,-9.9
 2003/11/02,14:45,22.9,68.5,22.2,-9.9
 2003/11/02,15:00,23,70,22.2,-9.9
 2003/11/02,15:15,23.2,69,22.2,-9.9
 2003/11/02,15:30,23.2,69,22.3,-9.9
 2003/11/02,15:45,23,68,22.2,-9.9
 2003/11/02,16:00,23,68,22.1,-9.9
 2003/11/02,16:15,22.9,68,22,-9.9
 2003/11/02,16:30,22.8,68,21.9,-9.9
 2003/11/02,16:45,22.7,69,21.8,-9.9
 2003/11/02,17:00,22.7,71,21.6,-9.9
 2003/11/02,17:15,22.6,71.5,21.5,-9.9
 2003/11/02,17:30,22.6,72,21.4,-9.9
 2003/11/02,17:45,22.6,73,21.4,-9.9
 2003/11/02,18:00,22.6,72,21.3,-9.9
 2003/11/02,18:15,22.6,72,21.2,-9.9
 2003/11/02,18:30,22.6,72,21.2,-9.9
 2003/11/02,18:45,22.6,72,21.1,-9.9
 2003/11/02,19:00,22.6,73,21.1,-9.9
 2003/11/02,19:15,22.5,72,21.1,-9.9
 2003/11/02,19:30,22.5,74,21.1,-9.9
 2003/11/02,19:45,22.6,73.5,21,-9.9
 2003/11/02,20:00,22.6,73,21,-9.9
 2003/11/02,20:15,22.6,73,21,-9.9
 2003/11/02,20:30,22.6,72,21,-9.9
 2003/11/02,20:45,22.6,72,21,-9.9
 2003/11/02,21:00,22.6,72,20.9,-9.9
 2003/11/02,21:15,22.5,72,20.9,-9.9
 2003/11/02,21:30,22.4,71,20.8,-9.9
 2003/11/02,21:45,22.4,71,20.8,-9.9
 2003/11/02,22:00,22.3,71,20.8,-9.9
 2003/11/02,22:15,22.4,71.5,20.8,-9.9
 2003/11/02,22:30,22.4,72,20.8,-9.9
 2003/11/02,22:45,22.4,73,20.8,-9.9
 2003/11/02,23:00,22.4,73,20.8,-9.9
 2003/11/02,23:15,22.4,73.5,20.8,-9.9
 2003/11/02,23:30,22.5,75,20.8,-9.9
 2003/11/02,23:45,22.5,75,20.8,-9.9
 2003/11/03, 0:00,22.6,76,20.8,-9.9
 2003/11/03, 0:15,22.4,74.5,20.8,-9.9
 2003/11/03, 0:30,22.5,74,20.8,-9.9
 2003/11/03, 0:45,22.5,74,20.8,-9.9
 2003/11/03, 1:00,22.4,74,20.8,-9.9
 2003/11/03, 1:15,22.4,73.5,20.8,-9.9
 2003/11/03, 1:30,22.4,73,20.8,-9.9
 2003/11/03, 1:45,22.4,73,20.8,-9.9
 2003/11/03, 2:00,22.4,73,20.8,-9.9
 2003/11/03, 2:15,22.4,74,20.8,-9.9
 2003/11/03, 2:30,22.3,74,20.8,-9.9
 2003/11/03, 2:45,22.2,73,20.8,-9.9
 2003/11/03, 3:00,22.2,73,20.7,-9.9
 2003/11/03, 3:15,22.1,73,20.7,-9.9
 2003/11/03, 3:30,21.9,72,20.8,-9.9
 2003/11/03, 3:45,21.8,71,21,-9.9
 2003/11/03, 4:00,21.6,70,21,-9.9
 2003/11/03, 4:15,21.5,70,21,-9.9
 2003/11/03, 4:30,21.4,70,21,-9.9
 2003/11/03, 4:45,21.3,71,21,-9.9
 2003/11/03, 5:00,21.2,71,21,-9.9
 2003/11/03, 5:15,21.2,71,21,-9.9
 2003/11/03, 5:30,21.1,71,20.9,-9.9
 2003/11/03, 5:45,21,71,20.9,-9.9
 2003/11/03, 6:00,21,71,20.9,-9.9
 2003/11/03, 6:15,21,71,20.9,-9.9
 2003/11/03, 6:30,21,72,20.8,-9.9
 2003/11/03, 6:45,20.9,71.5,20.8,-9.9
 2003/11/03, 7:00,20.9,72,20.8,-9.9
 2003/11/03, 7:15,20.9,72,20.8,-9.9
 2003/11/03, 7:30,20.8,72,20.8,-9.9
 2003/11/03, 7:45,20.8,72.5,20.9,-9.9
 2003/11/03, 8:00,20.8,73,20.9,-9.9
 2003/11/03, 8:15,20.8,73,20.9,-9.9
 2003/11/03, 8:30,20.8,73,21,-9.9
 2003/11/03, 8:45,20.9,72,21.1,-9.9
 2003/11/03, 9:00,20.9,72,21.2,-9.9
 2003/11/03, 9:15,21,72.5,21.2,-9.9
 2003/11/03, 9:30,21.3,73,21.2,-9.9
 2003/11/03, 9:45,21.4,75,21.1,-9.9
 2003/11/03,10:00,21.5,76,21.1,-9.9
 2003/11/03,10:15,21.5,75.5,21.2,-9.9
 2003/11/03,10:30,21.5,76,21.1,-9.9
 2003/11/03,10:45,21.5,76,21,-9.9
 2003/11/03,11:00,21.6,76,21.1,-9.9
 2003/11/03,11:15,21.6,75.5,21.1,-9.9
 2003/11/03,11:30,21.6,75,21.1,-9.9
 2003/11/03,11:45,21.6,75,21.1,-9.9
 2003/11/03,12:00,21.6,75,21.2,-9.9
 2003/11/03,12:15,21.7,76,21.1,-9.9
 2003/11/03,12:30,21.8,77,21.1,-9.9
 2003/11/03,12:45,21.8,76,21.1,-9.9
 2003/11/03,13:00,21.8,75,21.1,-9.9
 2003/11/03,13:15,21.9,76,21,-9.9
 2003/11/03,13:30,21.9,77,21.1,-9.9
 2003/11/03,13:45,21.9,77,21.1,-9.9
 2003/11/03,14:00,21.9,76,21.1,-9.9
 2003/11/03,14:15,21.9,76,21.1,-9.9
 2003/11/03,14:30,21.9,75,21.1,-9.9
 2003/11/03,14:45,21.9,75,21,-9.9
 2003/11/03,15:00,21.9,75,21,-9.9
 2003/11/03,15:15,21.9,75,21,-9.9
 2003/11/03,15:30,21.9,75,21,-9.9
 2003/11/03,15:45,21.9,75,21,-9.9
 2003/11/03,16:00,21.9,75,21.1,-9.9
 2003/11/03,16:15,21.9,75,21.1,-9.9
 2003/11/03,16:30,21.9,75,21.1,-9.9
 2003/11/03,16:45,21.9,75,21.1,-9.9
 2003/11/03,17:00,21.9,75,21.1,-9.9
 2003/11/03,17:15,22,75,21.1,-9.9
 2003/11/03,17:30,22,75,21.1,-9.9
 2003/11/03,17:45,22,75,21,-9.9
 2003/11/03,18:00,22.1,75,21,-9.9
 2003/11/03,18:15,22.1,75,21,-9.9
 2003/11/03,18:30,22.2,76,21,-9.9
 2003/11/03,18:45,22.2,76.5,21,-9.9
 2003/11/03,19:00,22.2,76,21,-9.9
 2003/11/03,19:15,22.2,74.5,20.9,-9.9
 2003/11/03,19:30,22.2,76,21,-9.9
 2003/11/03,19:45,22.2,76,21,-9.9
 2003/11/03,20:00,22.2,76,20.9,-9.9
 2003/11/03,20:15,22.3,75,20.9,-9.9
 2003/11/03,20:30,22.3,75,20.9,-9.9
 2003/11/03,20:45,22.3,75,20.9,-9.9
 2003/11/03,21:00,22.3,76,20.8,-9.9
 2003/11/03,21:15,22.3,75.5,20.8,-9.9
 2003/11/03,21:30,22.3,75,20.8,-9.9
 2003/11/03,21:45,22.3,75,20.8,-9.9
 2003/11/03,22:00,22.3,75,20.8,-9.9
 2003/11/03,22:15,22.2,75,20.8,-9.9
 2003/11/03,22:30,22.3,77,20.7,-9.9
 2003/11/03,22:45,22.3,77.5,20.7,-9.9
 2003/11/03,23:00,22.4,79,20.6,-9.9
 2003/11/03,23:15,22.3,79.5,20.6,-9.9
 2003/11/03,23:30,22.3,80,20.6,-9.9
 2003/11/03,23:45,22.2,79,20.6,-9.9
 2003/11/04, 0:00,22.2,79,20.6,-9.9
 2003/11/04, 0:15,22.1,78.5,20.6,-9.9
 2003/11/04, 0:30,22.1,80,20.6,-9.9
 2003/11/04, 0:45,22,79.5,20.5,-9.9
 2003/11/04, 1:00,21.8,78,20.6,-9.9
 2003/11/04, 1:15,21.6,76.5,20.5,-9.9
 2003/11/04, 1:30,21.5,76,20.5,-9.9
 2003/11/04, 1:45,21.5,75,20.6,-9.9
 2003/11/04, 2:00,21.4,75,20.5,-9.9
 2003/11/04, 2:15,21.4,75,20.5,-9.9
 2003/11/04, 2:30,21.4,75,20.4,-9.9
 2003/11/04, 2:45,21.5,74.5,20.4,-9.9
 2003/11/04, 3:00,21.5,74,20.4,-9.9
 2003/11/04, 3:15,21.4,74.5,20.4,-9.9
 2003/11/04, 3:30,21.3,75,20.4,-9.9
 2003/11/04, 3:45,21.1,74,20.4,-9.9
 2003/11/04, 4:00,21,74,20.4,-9.9
 2003/11/04, 4:15,21,73.5,20.3,-9.9
 2003/11/04, 4:30,20.8,73,20.3,-9.9
 2003/11/04, 4:45,20.8,73,20.2,-9.9
 2003/11/04, 5:00,20.7,73,20.1,-9.9
 2003/11/04, 5:15,20.5,73,20,-9.9
 2003/11/04, 5:30,20.4,73,19.9,-9.9
 2003/11/04, 5:45,20.3,73,19.8,-9.9
 2003/11/04, 6:00,20.2,73,19.7,-9.9
 2003/11/04, 6:15,20,73,19.6,-9.9
 2003/11/04, 6:30,20,72,19.6,-9.9
 2003/11/04, 6:45,19.9,73,19.5,-9.9
 2003/11/04, 7:00,19.8,72,19.5,-9.9
 2003/11/04, 7:15,19.6,72,19.4,-9.9
 2003/11/04, 7:30,19.6,72,19.4,-9.9
 2003/11/04, 7:45,19.7,73,19.5,-9.9
 2003/11/04, 8:00,19.9,75,19.5,-9.9
 2003/11/04, 8:15,20.1,76,19.6,-9.9
 2003/11/04, 8:30,20.3,74,19.8,-9.9
 2003/11/04, 8:45,20.5,73,19.8,-9.9
 2003/11/04, 9:00,20.8,71,19.8,-9.9
 2003/11/04, 9:15,21,70.5,19.8,-9.9
 2003/11/04, 9:30,21.3,69,19.8,-9.9
 2003/11/04, 9:45,22.4,65.5,19.9,-9.9
 2003/11/04,10:00,23.1,63,20,-9.9
 2003/11/04,10:15,23.6,61.5,20,-9.9
 2003/11/04,10:30,24.7,59,20,-9.9
 2003/11/04,10:45,24.9,57.5,20.1,-9.9
 2003/11/04,11:00,25.5,55,20.3,-9.9
 2003/11/04,11:15,26.2,53.5,20.4,-9.9
 2003/11/04,11:30,26.5,45,20.5,-9.9
 2003/11/04,11:45,26.4,38.5,20.8,-9.9
 2003/11/04,12:00,26.4,36,21,-9.9
 2003/11/04,12:15,26.5,34.5,21,-9.9
 2003/11/04,12:30,26.4,36,21.2,-9.9
 2003/11/04,12:45,26.6,43,21.5,-9.9
 2003/11/04,13:00,26.6,45,21.7,-9.9
 2003/11/04,13:15,26.6,47.5,22,-9.9
 2003/11/04,13:30,26.5,49,22.4,-9.9
 2003/11/04,13:45,26.4,50.5,22.6,-9.9
 2003/11/04,14:00,26.2,51,22.8,-9.9
 2003/11/04,14:15,25.6,45.5,23.2,-9.9
 2003/11/04,14:30,25.4,51,23.6,-9.9
 2003/11/04,14:45,24.9,46,23.8,-9.9
 2003/11/04,15:00,24.3,39,23.8,-9.9
 2003/11/04,15:15,23.9,36.5,23.1,-9.9
 2003/11/04,15:30,23.2,35,22.6,-9.9
 2003/11/04,15:45,22.8,37,22.3,-9.9
 2003/11/04,16:00,22.5,39,22.1,-9.9
 2003/11/04,16:15,22.4,44.5,22,-9.9
 2003/11/04,16:30,22.2,48,21.9,-9.9
 2003/11/04,16:45,22.1,50,21.5,-9.9
 2003/11/04,17:00,21.9,51,21.4,-9.9
 2003/11/04,17:15,21.6,52,21.1,-9.9
 2003/11/04,17:30,21.4,54,21,-9.9
 2003/11/04,17:45,21.2,54.5,20.8,-9.9
 2003/11/04,18:00,21.1,55,20.7,-9.9
 2003/11/04,18:15,20.9,55.5,20.5,-9.9
 2003/11/04,18:30,20.8,55,20.3,-9.9
 2003/11/04,18:45,20.6,56,20.2,-9.9
 2003/11/04,19:00,20.5,56,20,-9.9
 2003/11/04,19:15,20.2,56.5,19.9,-9.9
 2003/11/04,19:30,20.1,57,19.8,-9.9
 2003/11/04,19:45,20,57,19.6,-9.9
 2003/11/04,20:00,19.8,57,19.5,-9.9
 2003/11/04,20:15,19.6,57.5,19.2,-9.9
 2003/11/04,20:30,19.5,58,19.2,-9.9
 2003/11/04,20:45,19.4,58,19,-9.9
 2003/11/04,21:00,19.2,58,18.9,-9.9
 2003/11/04,21:15,19.1,58.5,18.8,-9.9
 2003/11/04,21:30,19,59,18.7,-9.9
 2003/11/04,21:45,18.9,59,18.5,-9.9
 2003/11/04,22:00,18.6,60,18.5,-9.9
 2003/11/04,22:15,18.5,60,18.4,-9.9
 2003/11/04,22:30,18.5,60,18.3,-9.9
 2003/11/04,22:45,18.4,60.5,18.1,-9.9
 2003/11/04,23:00,18.3,61,18,-9.9
 2003/11/04,23:15,18.2,61,17.9,-9.9
 2003/11/04,23:30,18.2,61,17.8,-9.9
 2003/11/04,23:45,18.2,62,17.6,-9.9
 2003/11/05, 0:00,18.2,62,17.6,-9.9
 2003/11/05, 0:15,18.2,63,17.5,-9.9
 2003/11/05, 0:30,18.1,63,17.3,-9.9
 2003/11/05, 0:45,18.1,63.5,17.2,-9.9
 2003/11/05, 1:00,18.1,64,17.2,-9.9
 2003/11/05, 1:15,18,63.5,17.1,-9.9
 2003/11/05, 1:30,18,64,17.1,-9.9
 2003/11/05, 1:45,17.9,64,17,-9.9
 2003/11/05, 2:00,17.8,64,17,-9.9
 2003/11/05, 2:15,17.6,64,16.9,-9.9
 2003/11/05, 2:30,17.6,64,16.8,-9.9
 2003/11/05, 2:45,17.5,64,16.7,-9.9
 2003/11/05, 3:00,17.4,64,16.6,-9.9
 2003/11/05, 3:15,17.2,64,16.5,-9.9
 2003/11/05, 3:30,17.1,64,16.5,-9.9
 2003/11/05, 3:45,17,64,16.4,-9.9
 2003/11/05, 4:00,16.9,64,16.4,-9.9
 2003/11/05, 4:15,16.9,64,16.3,-9.9
 2003/11/05, 4:30,16.8,64,16.2,-9.9
 2003/11/05, 4:45,16.7,64,16.1,-9.9
 2003/11/05, 5:00,16.6,64,16.1,-9.9
 2003/11/05, 5:15,16.5,64,16,-9.9
 2003/11/05, 5:30,16.5,64,15.9,-9.9
 2003/11/05, 5:45,16.4,64,15.9,-9.9
 2003/11/05, 6:00,16.2,64,15.8,-9.9
 2003/11/05, 6:15,16.1,64,15.7,-9.9
 2003/11/05, 6:30,16.2,64,15.7,-9.9
 2003/11/05, 6:45,16,64,15.7,-9.9
 2003/11/05, 7:00,16,64,15.7,-9.9
 2003/11/05, 7:15,16,64.5,15.8,-9.9
 2003/11/05, 7:30,16,64,15.8,-9.9
 2003/11/05, 7:45,16,64,15.9,-9.9
 2003/11/05, 8:00,16.1,65,16.1,-9.9
 2003/11/05, 8:15,16.4,64.5,16.1,-9.9
 2003/11/05, 8:30,16.9,67,16.3,-9.9
 2003/11/05, 8:45,17.8,67,16.5,-9.9
 2003/11/05, 9:00,17.8,63,17,-9.9
 2003/11/05, 9:15,17.8,63,17.3,-9.9
 2003/11/05, 9:30,17.8,63,17.6,-9.9
 2003/11/05, 9:45,18,63,17.9,-9.9
 2003/11/05,10:00,18,63,18.1,-9.9
 2003/11/05,10:15,18.1,62,18.3,-9.9
 2003/11/05,10:30,18.3,62,18.6,-9.9
 2003/11/05,10:45,18.5,62,18.8,-9.9
 2003/11/05,11:00,18.8,62,19.1,-9.9
 2003/11/05,11:15,19,62,19.4,-9.9
 2003/11/05,11:30,19.2,62,20,-9.9
 2003/11/05,11:45,19.4,61,20.3,-9.9
 2003/11/05,12:00,19.5,62,20.5,-9.9
 2003/11/05,12:15,19.6,62,20.6,-9.9
 2003/11/05,12:30,19.7,62,20.8,-9.9
 2003/11/05,12:45,19.8,62,21,-9.9
 2003/11/05,13:00,19.8,62,21.1,-9.9
 2003/11/05,13:15,20,63,21.1,-9.9
 2003/11/05,13:30,20,63,21,-9.9
 2003/11/05,13:45,20,63,21,-9.9
 2003/11/05,14:00,20.1,63,21,-9.9
 2003/11/05,14:15,20.1,63,20.9,-9.9
 2003/11/05,14:30,20.2,63,20.8,-9.9
 2003/11/05,14:45,20.2,64,20.8,-9.9
 2003/11/05,15:00,20.2,64,20.7,-9.9
 2003/11/05,15:15,20.2,64,20.7,-9.9
 2003/11/05,15:30,20.2,64,20.6,-9.9
 2003/11/05,15:45,20.2,64.5,20.5,-9.9
 2003/11/05,16:00,20.2,65,20.4,-9.9
 2003/11/05,16:15,20.2,65,20.4,-9.9
 2003/11/05,16:30,20.2,65,20.3,-9.9
 2003/11/05,16:45,20.2,65,20.3,-9.9
 2003/11/05,17:00,20.2,65,20.2,-9.9
 2003/11/05,17:15,20.2,65,20.1,-9.9
 2003/11/05,17:30,20.1,66,20.1,-9.9
 2003/11/05,17:45,20.1,67,20.1,-9.9
 2003/11/05,18:00,20.1,68,20.1,-9.9
 2003/11/05,18:15,20.1,68,20.1,-9.9
 2003/11/05,18:30,20.1,68,20,-9.9
 2003/11/05,18:45,20,68.5,20,-9.9
 2003/11/05,19:00,20,69,20,-9.9
 2003/11/05,19:15,20,69,20,-9.9
 2003/11/05,19:30,20,69,19.9,-9.9
 2003/11/05,19:45,20,69,19.9,-9.9
 2003/11/05,20:00,20,68,19.9,-9.9
 2003/11/05,20:15,19.9,69,19.9,-9.9
 2003/11/05,20:30,19.9,69,19.8,-9.9
 2003/11/05,20:45,19.9,69,19.8,-9.9
 2003/11/05,21:00,19.9,69,19.8,-9.9
 2003/11/05,21:15,19.9,69,19.8,-9.9
 2003/11/05,21:30,19.8,69,19.8,-9.9
 2003/11/05,21:45,19.8,69,19.7,-9.9
 2003/11/05,22:00,19.8,69,19.7,-9.9
 2003/11/05,22:15,19.8,69,19.6,-9.9
 2003/11/05,22:30,19.7,69,19.6,-9.9
 2003/11/05,22:45,19.7,69,19.6,-9.9
 2003/11/05,23:00,19.6,69,19.6,-9.9
 2003/11/05,23:15,19.6,69,19.5,-9.9
 2003/11/05,23:30,19.6,69,19.5,-9.9
 2003/11/05,23:45,19.5,68,19.5,-9.9
 2003/11/06, 0:00,19.5,68,19.4,-9.9
 2003/11/06, 0:15,19.5,68,19.4,-9.9
 2003/11/06, 0:30,19.4,68,19.4,-9.9
 2003/11/06, 0:45,19.4,69,19.4,-9.9
 2003/11/06, 1:00,19.4,69,19.3,-9.9
 2003/11/06, 1:15,19.4,69,19.3,-9.9
 2003/11/06, 1:30,19.3,69,19.3,-9.9
 2003/11/06, 1:45,19.3,69,19.3,-9.9
 2003/11/06, 2:00,19.3,69,19.2,-9.9
 2003/11/06, 2:15,19.2,69,19.2,-9.9
 2003/11/06, 2:30,19.2,69,19.2,-9.9
 2003/11/06, 2:45,19.2,69.5,19.2,-9.9
 2003/11/06, 3:00,19.2,70,19.2,-9.9
 2003/11/06, 3:15,19.2,69.5,19.1,-9.9
 2003/11/06, 3:30,19.1,70,19.1,-9.9
 2003/11/06, 3:45,19.1,70,19.1,-9.9
 2003/11/06, 4:00,19.1,70,19.1,-9.9
 2003/11/06, 4:15,19.1,70,19.1,-9.9
 2003/11/06, 4:30,19,70,19.1,-9.9
 2003/11/06, 4:45,19,70.5,19,-9.9
 2003/11/06, 5:00,19,70,19,-9.9
 2003/11/06, 5:15,19,70.5,19,-9.9
 2003/11/06, 5:30,18.9,71,19,-9.9
 2003/11/06, 5:45,19,71,19,-9.9
 2003/11/06, 6:00,18.9,71,19,-9.9
 2003/11/06, 6:15,19,71,19,-9.9
 2003/11/06, 6:30,18.9,71,19,-9.9
 2003/11/06, 6:45,18.9,71,19,-9.9
 2003/11/06, 7:00,18.9,71,19,-9.9
 2003/11/06, 7:15,18.9,71,19,-9.9
 2003/11/06, 7:30,18.8,71,19,-9.9
 2003/11/06, 7:45,18.9,71,19,-9.9
 2003/11/06, 8:00,18.9,71,19,-9.9
 2003/11/06, 8:15,18.9,71,19,-9.9
 2003/11/06, 8:30,18.9,71,19.1,-9.9
 2003/11/06, 8:45,18.9,71,19.3,-9.9
 2003/11/06, 9:00,18.9,71,19.4,-9.9
 2003/11/06, 9:15,19,71,19.5,-9.9
 2003/11/06, 9:30,19,71,19.7,-9.9
 2003/11/06, 9:45,19.1,70,19.8,-9.9
 2003/11/06,10:00,19.2,70,19.8,-9.9
 2003/11/06,10:15,19.4,70,20,-9.9
 2003/11/06,10:30,19.4,70,20.2,-9.9
 2003/11/06,10:45,19.5,69,20.3,-9.9
 2003/11/06,11:00,19.6,69,20.4,-9.9
 2003/11/06,11:15,19.6,69,20.5,-9.9
 2003/11/06,11:30,19.8,69,20.8,-9.9
 2003/11/06,11:45,20,68.5,21.1,-9.9
 2003/11/06,12:00,20.3,67,21.4,-9.9
 2003/11/06,12:15,20.5,67,21.6,-9.9
 2003/11/06,12:30,20.5,66,21.7,-9.9
 2003/11/06,12:45,20.6,66,21.9,-9.9
 2003/11/06,13:00,20.8,66,22,-9.9
 2003/11/06,13:15,20.9,66,22,-9.9
 2003/11/06,13:30,21,66,21.9,-9.9
 2003/11/06,13:45,21.8,65,22.2,-9.9
 2003/11/06,14:00,22.6,63,22.7,-9.9
 2003/11/06,14:15,22.6,63.5,23.1,-9.9
 2003/11/06,14:30,22.3,64,23,-9.9
 2003/11/06,14:45,22.2,65,22.9,-9.9
 2003/11/06,15:00,22.2,65,22.8,-9.9
 2003/11/06,15:15,22.2,66,22.8,-9.9
 2003/11/06,15:30,22.1,66,22.8,-9.9
 2003/11/06,15:45,22.1,66,22.8,-9.9
 2003/11/06,16:00,22.1,67,22.6,-9.9
 2003/11/06,16:15,22,66.5,22.5,-9.9
 2003/11/06,16:30,21.9,67,22.3,-9.9
 2003/11/06,16:45,21.9,68,22.1,-9.9
 2003/11/06,17:00,21.8,68,22,-9.9
 2003/11/06,17:15,21.8,68.5,22,-9.9
 2003/11/06,17:30,21.8,69,21.9,-9.9
 2003/11/06,17:45,21.7,69,21.8,-9.9
 2003/11/06,18:00,21.7,69,21.8,-9.9
 2003/11/06,18:15,21.7,69.5,21.8,-9.9
 2003/11/06,18:30,21.6,70,21.7,-9.9
 2003/11/06,18:45,21.6,70.5,21.7,-9.9
 2003/11/06,19:00,21.7,70,21.7,-9.9
 2003/11/06,19:15,21.7,70.5,21.7,-9.9
 2003/11/06,19:30,21.6,71,21.6,-9.9
 2003/11/06,19:45,21.6,71,21.6,-9.9
 2003/11/06,20:00,21.6,71,21.6,-9.9
 2003/11/06,20:15,21.6,71,21.5,-9.9
 2003/11/06,20:30,21.5,71,21.4,-9.9
 2003/11/06,20:45,21.5,71.5,21.4,-9.9
 2003/11/06,21:00,21.5,71,21.3,-9.9
 2003/11/06,21:15,21.4,72,21.4,-9.9
 2003/11/06,21:30,21.4,71,21.3,-9.9
 2003/11/06,21:45,21.4,71,21.2,-9.9
 2003/11/06,22:00,21.4,72,21.2,-9.9
 2003/11/06,22:15,21.4,72,21.3,-9.9
 2003/11/06,22:30,21.4,72,21.3,-9.9
 2003/11/06,22:45,21.3,73,21.2,-9.9
 2003/11/06,23:00,21.3,73,21.2,-9.9
 2003/11/06,23:15,21.2,73,21.1,-9.9
 2003/11/06,23:30,21.2,72,21.1,-9.9
 2003/11/06,23:45,21.1,72,21,-9.9
 2003/11/07, 0:00,21.1,71,21,-9.9
 2003/11/07, 0:15,21,71,21,-9.9
 2003/11/07, 0:30,21,71,20.8,-9.9
 2003/11/07, 0:45,21,71,20.8,-9.9
 2003/11/07, 1:00,20.8,71,20.7,-9.9
 2003/11/07, 1:15,20.8,71,20.5,-9.9
 2003/11/07, 1:30,20.7,71,20.5,-9.9
 2003/11/07, 1:45,20.5,71,20.4,-9.9
 2003/11/07, 2:00,20.5,71,20.3,-9.9
 2003/11/07, 2:15,20.4,71,20.2,-9.9
 2003/11/07, 2:30,20.3,71,20.2,-9.9
 2003/11/07, 2:45,20.4,72.5,20.2,-9.9
 2003/11/07, 3:00,20.3,74,20.2,-9.9
 2003/11/07, 3:15,20.2,74,20.1,-9.9
 2003/11/07, 3:30,20.2,74,20.1,-9.9
 2003/11/07, 3:45,20.1,74,20,-9.9
 2003/11/07, 4:00,20,74,19.9,-9.9
 2003/11/07, 4:15,19.9,73.5,19.9,-9.9
 2003/11/07, 4:30,19.9,73,19.8,-9.9
 2003/11/07, 4:45,19.8,73,19.8,-9.9
 2003/11/07, 5:00,19.7,73,19.6,-9.9
 2003/11/07, 5:15,19.6,73,19.5,-9.9
 2003/11/07, 5:30,19.5,73,19.5,-9.9
 2003/11/07, 5:45,19.5,73,19.4,-9.9
 2003/11/07, 6:00,19.4,73,19.3,-9.9
 2003/11/07, 6:15,19.4,73,19.2,-9.9
 2003/11/07, 6:30,19.2,73,19.2,-9.9
 2003/11/07, 6:45,19.1,73,19.2,-9.9
 2003/11/07, 7:00,19.1,73,19.2,-9.9
 2003/11/07, 7:15,19.1,73,19.2,-9.9
 2003/11/07, 7:30,19.1,73,19.4,-9.9
 2003/11/07, 7:45,19.4,73,19.5,-9.9
 2003/11/07, 8:00,19.7,73,19.6,-9.9
 2003/11/07, 8:15,20.2,71.5,19.6,-9.9
 2003/11/07, 8:30,20.8,70,19.6,-9.9
 2003/11/07, 8:45,21,67.5,19.8,-9.9
 2003/11/07, 9:00,21.4,66,19.9,-9.9
 2003/11/07, 9:15,21.9,63.5,20,-9.9
 2003/11/07, 9:30,22.5,62,20.2,-9.9
 2003/11/07, 9:45,23.5,57.5,20.4,-9.9
 2003/11/07,10:00,23.7,58,20.6,-9.9
 2003/11/07,10:15,24.5,56,20.8,-9.9
 2003/11/07,10:30,24.7,56,21.1,-9.9
 2003/11/07,10:45,25.1,54.5,21.3,-9.9
 2003/11/07,11:00,25.5,54,21.5,-9.9
 2003/11/07,11:15,25.9,53,21.8,-9.9
 2003/11/07,11:30,26.2,52,22,-9.9
 2003/11/07,11:45,26.4,52,22.2,-9.9
 2003/11/07,12:00,26.5,52,22.4,-9.9
 2003/11/07,12:15,26.7,52,22.6,-9.9
 2003/11/07,12:30,26.8,51,22.8,-9.9
 2003/11/07,12:45,27,52,23,-9.9
 2003/11/07,13:00,26.7,52,23.3,-9.9
 2003/11/07,13:15,26.6,52.5,23.6,-9.9
 2003/11/07,13:30,26.7,52,23.8,-9.9
 2003/11/07,13:45,26.4,49,24,-9.9
 2003/11/07,14:00,26.2,50,24.3,-9.9
 2003/11/07,14:15,25.9,46.5,24.4,-9.9
 2003/11/07,14:30,25.8,50,24.5,-9.9
 2003/11/07,14:45,25.5,49.5,24.7,-9.9
 2003/11/07,15:00,25.4,50,24.7,-9.9
 2003/11/07,15:15,25.1,51.5,24.6,-9.9
 2003/11/07,15:30,24.7,54,24.5,-9.9
 2003/11/07,15:45,24.5,53.5,24.4,-9.9
 2003/11/07,16:00,24.2,56,24.3,-9.9
 2003/11/07,16:15,24,55,24.1,-9.9
 2003/11/07,16:30,23.8,58,23.9,-9.9
 2003/11/07,16:45,23.5,58.5,23.8,-9.9
 2003/11/07,17:00,23.3,60,23.6,-9.9
 2003/11/07,17:15,23.1,61,23.5,-9.9
 2003/11/07,17:30,22.9,62,23.2,-9.9
 2003/11/07,17:45,22.8,63,23,-9.9
 2003/11/07,18:00,22.6,63,22.9,-9.9
 2003/11/07,18:15,22.5,63.5,22.8,-9.9
 2003/11/07,18:30,22.3,64,22.6,-9.9